Weather in Yargunkino

Russia / Chuvash Republic     55°46′02″N   46°41′27″E
temp.,
°C
wind,
m/s
gust,
m/s
humid.,
%
clouds,
%
prec.,
mm/h
press.,
hPa
HPBL,
m
24 january, mon
mon2400:00−14ne11100100 0.0 10349
03:00−15ne22100100 0.1 103610
06:00−17ne22100100 0.0 103613
09:00−18ne22100100 0.1 103712
12:00−11e229783 0.0 103776
15:00−13ene229753 0.0 103610
18:00−18e2110093 0.0 10369
21:00−18se22100100 0.0 103610
25 january, tue
tue2500:00−20se2210060 0.0 103410
03:00−21sse2210069 0.0 103317
06:00−21sse2210087 0.0 103126
09:00−21sse2210088 0.0 103026
12:00−12s25915 0.0 1027141
15:00−13s22965 0.0 102612
18:00−17sse339860 0.0 102542
21:00−17s379889 0.0 102373
26 january, wed
wed2600:00−16s259875 0.0 102272
03:00−13s379776 0.1 1020144
06:00−13s389783 0.1 1019175
09:00−13s389775 0.1 1019180
12:00−10ssw369493 0.1 1018254
15:00−11ssw229688 0.1 101842
18:00−14s229981 0.1 101811
21:00−14ssw249978 0.1 101755
27 january, thu
thu2700:00−18sw2310099 0.0 101836
03:00−20sw23100100 0.0 101828
06:00−21ssw2510097 0.0 101859
09:00−18ssw369867 0.1 1018114
12:00−14ssw369592 0.0 1018224
15:00−13ssw249684 0.1 101883
18:00−17ssw2310074 0.0 101839
21:00−18ssw2310096 0.1 101844
28 january, fri
fri2800:00−19ssw2210093 0.1 101834
03:00−21ssw2310098 0.1 101835
06:00−20s2310077 0.1 101737
09:00−21s24100100 0.1 101750
12:00−14s359578 0.0 1016162
15:00−13sse229796 0.0 101534
18:00−18sse3310073 0.0 101539
21:00−19se3510094 0.0 101449